Location: Sungai Igah
(2.7333°N, 114.2500°E)
Time: 16:27:33
(UTC+00:00)

ATLAS 2AS CENTAUR R/B - Pass Details

Date: 30 October 2021
Orbit: 958 x 1254 km, 63.7° (Epoch: 28 November)

Event Time Altitude Azimuth Distance (km) Brightness Sun altitude
Rises 11:19:06 0° 172° (S) 4,035 5.8 -18.2°
Reaches altitude 10° 11:22:41 10° 155° (SSE) 3,120 5.0 -19.1°
Enters shadow 11:27:11 20° 118° (ESE) 2,513 4.2 -20.2°
